Weather History for Dansville, NY

Change the Weather History Date:

Saturday, October 27, 2012

  Actual Average Record
Temperature  
Mean Temperature 49 °F -  
Max Temperature 53 °F 58 °F 82 °F (1963)
Min Temperature 46 °F 37 °F 20 °F (1976)
Degree Days  
Heating Degree Days 16    
Moisture  
Dew Point 47 °F    
Average Humidity 95    
Maximum Humidity 100    
Minimum Humidity 88    
Precipitation  
Precipitation 0.12 in - - ()
Sea Level Pressure  
Sea Level Pressure 30.07 in    
Wind  
Wind Speed 7 mph (NW)    
Max Wind Speed 17 mph    
Max Gust Speed 24 mph    
Visibility 6 miles    
Events Rain    
Averages and records for this station are not official NWS values.
T = Trace of Precipitation, MM = Missing Value Source: NWS Daily Summary

Daily Weather History Graph

Daily Weather History Graph

Search for Another Location

Airport:

Trip Planner

Search our weather history database for the weather conditions in past years. The results will help you decide how hot, cold, wet, or windy it might be!

Date:

Astronomy

Oct. 27, 2012 Rise Set
Actual Time 7:38 AM EDT 6:09 PM EDT
Civil Twilight 7:09 AM EDT 6:38 PM EDT
Nautical Twilight 6:36 AM EDT 7:11 PM EDT
Astronomical Twilight 6:04 AM EDT 7:44 PM EDT
Moon 4:56 PM EDT (10/27) 5:30 AM EDT (10/27)
Length of Visible Light 11h 28m
Length of Day
10h 30m
Waxing Gibbous, 96% of the Moon is Illuminated
Oct 27
Waxing Gibbous
Oct 29
Full
Nov 6
Last Quarter
Nov 13
New
Nov 20
First Quarter

Hourly Weather History & Observations

Time (EDT) Temp. Windchill Dew Point Humidity Pressure Visibility Wind Dir Wind Speed Gust Speed Precip Events Conditions
12:14 AM 48.2 °F - 46.4 °F 93% 30.17 in 4.0 mi NW 12.7 mph - 0.00 in Rain Light Rain
12:29 AM 48.2 °F - 46.4 °F 93% 30.17 in 3.0 mi NW 9.2 mph - 0.00 in Rain Light Rain
12:54 AM 48.0 °F - 46.9 °F 96% 30.18 in 4.0 mi NW 8.1 mph - 0.01 in Rain Light Rain
1:03 AM 48.2 °F - 46.4 °F 93% 30.15 in 4.0 mi NNW 6.9 mph - 0.00 in Rain Light Rain
1:17 AM 48.2 °F - 46.4 °F 93% 30.14 in 4.0 mi NNW 8.1 mph - 0.00 in   Overcast
1:54 AM 48.0 °F - 46.9 °F 96% 30.16 in 6.0 mi NW 5.8 mph - 0.00 in   Overcast
2:21 AM 46.4 °F 43.5 °F 46.4 °F 100% 30.13 in 5.0 mi NW 5.8 mph - 0.00 in Rain Light Rain
2:54 AM 48.0 °F - 46.9 °F 96% 30.15 in 6.0 mi NW 5.8 mph - 0.01 in   Overcast
3:09 AM 48.2 °F - 46.4 °F 93% 30.13 in 8.0 mi NW 6.9 mph - N/A   Overcast
3:54 AM 46.9 °F - 46.0 °F 97% 30.13 in 7.0 mi Calm Calm - 0.00 in Rain Light Rain
4:39 AM 48.2 °F - 46.4 °F 93% 30.10 in 10.0 mi Calm Calm - 0.00 in   Overcast
4:47 AM 48.2 °F - 46.4 °F 93% 30.10 in 10.0 mi NW 3.5 mph - 0.00 in   Overcast
4:54 AM 48.0 °F - 46.0 °F 93% 30.12 in 10.0 mi NNW 3.5 mph - 0.00 in   Overcast
5:46 AM 48.2 °F - 46.4 °F 93% 30.08 in 5.0 mi NNW 4.6 mph - N/A   Overcast
5:54 AM 48.0 °F - 46.9 °F 96% 30.11 in 5.0 mi NNW 3.5 mph - N/A   Overcast
6:54 AM 48.0 °F - 46.9 °F 96% 30.11 in 3.0 mi NNW 5.8 mph - 0.01 in   Overcast
7:37 AM 48.2 °F - 46.4 °F 93% 30.07 in 4.0 mi Calm Calm - N/A   Overcast
7:54 AM 48.0 °F - 46.9 °F 96% 30.10 in 5.0 mi Calm Calm - N/A   Overcast
8:54 AM 48.0 °F - 46.9 °F 96% 30.10 in 10.0 mi Calm Calm - N/A   Overcast
9:41 AM 48.2 °F - 48.2 °F 100% 30.06 in 7.0 mi Calm Calm - N/A   Overcast
9:54 AM 48.9 °F - 48.0 °F 97% 30.09 in 6.0 mi Calm Calm - N/A   Overcast
10:54 AM 50.0 °F - 48.0 °F 93% 30.09 in 9.0 mi Calm Calm - 0.00 in Rain Light Rain
11:54 AM 50.0 °F - 48.9 °F 96% 30.08 in 8.0 mi Calm Calm - 0.00 in Rain Light Rain
12:20 PM 50.0 °F - 48.2 °F 94% 30.03 in 9.0 mi Calm Calm - 0.00 in   Overcast
12:33 PM 50.0 °F - 48.2 °F 94% 30.03 in 8.0 mi Calm Calm - 0.00 in Rain Light Rain
12:54 PM 50.0 °F - 48.9 °F 96% 30.05 in 9.0 mi Calm Calm - 0.00 in   Overcast
1:38 PM 51.8 °F - 48.2 °F 88% 29.99 in 10.0 mi Calm Calm - N/A   Overcast
1:54 PM 52.0 °F - 48.9 °F 89% 30.01 in 10.0 mi Calm Calm - N/A   Overcast
2:19 PM 51.8 °F - 48.2 °F 88% 29.97 in 10.0 mi NNW 3.5 mph - N/A   Overcast
2:45 PM 51.8 °F - 50.0 °F 94% 29.96 in 10.0 mi NNW 4.6 mph - N/A   Overcast
2:54 PM 52.0 °F - 50.0 °F 93% 29.99 in 10.0 mi NNW 4.6 mph - N/A   Overcast
3:54 PM 52.0 °F - 50.0 °F 93% 29.99 in 10.0 mi NNW 3.5 mph - N/A   Overcast
4:07 PM 51.8 °F - 50.0 °F 94% 29.95 in 10.0 mi NNW 3.5 mph - N/A   Overcast
4:54 PM 52.0 °F - 51.1 °F 97% 29.99 in 8.0 mi NNW 5.8 mph - N/A   Overcast
5:50 PM 51.8 °F - 51.8 °F 100% 29.98 in 4.0 mi NW 10.4 mph - 0.01 in Rain Light Rain
5:54 PM 52.0 °F - 51.1 °F 97% 30.02 in 4.0 mi NW 11.5 mph - 0.01 in Rain Light Rain
6:08 PM 51.8 °F - 51.8 °F 100% 30.00 in 4.0 mi NNW 16.1 mph - 0.01 in Rain Light Rain
6:54 PM 48.9 °F - 48.0 °F 97% 30.07 in 5.0 mi NW 15.0 mph - 0.02 in Rain Light Rain
7:02 PM 48.2 °F - 46.4 °F 93% 30.04 in 6.0 mi NW 17.3 mph - 0.00 in Rain Light Rain
7:13 PM 48.2 °F - 46.4 °F 93% 30.04 in 5.0 mi NW 15.0 mph 24.2 mph 0.00 in Rain Light Rain
7:47 PM 48.2 °F - 46.4 °F 93% 30.05 in 7.0 mi NW 10.4 mph - 0.00 in Rain Light Rain
7:54 PM 48.0 °F - 46.9 °F 96% 30.09 in 5.0 mi NW 12.7 mph - 0.01 in Rain Light Rain
8:19 PM 48.2 °F - 46.4 °F 93% 30.06 in 4.0 mi NW 11.5 mph - 0.01 in Rain Light Rain
8:32 PM 48.2 °F - 46.4 °F 93% 30.06 in 4.0 mi NW 11.5 mph - 0.01 in Rain Light Rain
8:54 PM 46.9 °F - 46.0 °F 97% 30.09 in 4.0 mi NW 11.5 mph - 0.02 in Rain Light Rain
9:54 PM 46.9 °F - 46.0 °F 97% 30.09 in 5.0 mi NW 9.2 mph - 0.01 in Rain Light Rain
10:17 PM 46.4 °F 41.5 °F 46.4 °F 100% 30.06 in 8.0 mi NW 10.4 mph - 0.00 in   Overcast
10:31 PM 46.4 °F 41.5 °F 46.4 °F 100% 30.06 in 5.0 mi NW 10.4 mph - 0.00 in Rain Light Rain
10:41 PM 46.4 °F 41.1 °F 46.4 °F 100% 30.06 in 4.0 mi NW 11.5 mph - 0.00 in Rain Light Rain
10:54 PM 46.0 °F 40.6 °F 45.0 °F 96% 30.09 in 4.0 mi NW 11.5 mph - 0.01 in Rain Light Rain
11:28 PM 46.4 °F 41.9 °F 44.6 °F 93% 30.06 in 4.0 mi NW 9.2 mph - 0.00 in Rain Light Rain
11:54 PM 46.0 °F 40.6 °F 45.0 °F 96% 30.09 in 3.0 mi NW 11.5 mph - 0.01 in Rain Light Rain